Location: Multiple Mirror Telescope
(31.6889°N, 110.8853°W)
Time: 05:26:41
(UTC-07:00)

Tiangong - Visible Passes

Search period start: 05 December 2023 00:00
Search period end: 15 December 2023 00:00
Orbit: 373 x 383 km, 41.5° (Epoch: 04 December)

Date Brightness Start Highest point End Pass type
(mag) Time Alt. Az. Time Alt. Az. Time Alt. Az.
05 Dec 1.1 18:34:47 10° WSW 18:36:03 12° SW 18:37:19 10° SSW visible
12 Dec 1.0 06:29:47 10° S 06:31:30 14° SE 06:33:13 10° ESE visible
14 Dec 0.0 06:01:19 10° SSW 06:03:58 26° SE 06:06:37 10° E visible
